Weather in Bellyk

Russia / Krasnoyarsk Krai     54°32′52″N   91°19′58″E
temp.,
°C
wind,
m/s
gust,
m/s
humid.,
%
clouds,
%
prec.,
mm/h
press.,
hPa
HPBL,
m
29 january, sat
sat2901:00−24e11100100 0.1 103810
04:00−24ese11100100 0.1 103820
07:00−23se11100100 0.1 103841
10:00−23ese11100100 0.1 103848
13:00−19se229890 0.1 1038145
16:00−19se119849 0.0 103831
19:00−24ene1110084 0.0 10399
22:00−25e119943 0.0 10409
30 january, sun
sun3001:00−26e1110052 0.0 104010
04:00−27e1110056 0.0 104115
07:00−28ese1110081 0.0 104124
10:00−25se2210087 0.0 104152
13:00−20se229422 0.0 1039121
16:00−19se12935 0.0 103835
19:00−24ene11965 0.0 10399
22:00−25ene119513 0.0 10399
31 january, mon
mon3101:00−26e119624 0.0 103810
04:00−27ese119659 0.0 103813
07:00−28ese1110043 0.0 103917
10:00−26ese2110068 0.0 104034
13:00−21se229535 0.0 1038110
16:00−19se12935 0.0 103739
19:00−24ene11965 0.0 10399
22:00−25e11968 0.0 10399
1 february, tue
tue101:00−26e119621 0.0 10399
04:00−27ese119625 0.0 104011
07:00−27ese119739 0.0 104016
10:00−26se119945 0.0 104132
13:00−21se229759 0.0 1041101
16:00−20sse119570 0.0 104130
19:00−25ne119881 0.0 10429
22:00−26ene119977 0.0 10439
2 february, wed
wed201:00−26e1110082 0.0 10439
04:00−27ese1110072 0.0 10439
07:00−28e1110066 0.0 104313
10:00−27se1110066 0.0 104331
13:00−21sse229872 0.0 1042101
16:00−20sse119699 0.0 104145
19:00−24ne119991 0.0 10419
22:00−23e1198100 0.0 104110